Location: Borowce
(50.8255°N, 19.6209°E)
Time: 22:01:23
(UTC+00:00)

Cosmos 1633 Rocket - Pass Details

Date: 19 May 2025
Orbit: 600 x 618 km, 82.5° (Epoch: 16 June)

Event Time Altitude Azimuth Distance (km) Brightness Sun altitude
Rises 22:52:49 0° 350° (N) 2,885 8.0 -19.1°
Reaches altitude 10° 22:55:04 10° 351° (N) 1,973 6.8 -19.1°
Maximum altitude 22:59:26 81° 79° (E) 621 3.0 -19.0°
Enters shadow 23:00:50 42° 161° (SSE) 865 3.3 -19.0°
